Kremmling, CO

4:00 AM MDT on October 19, 2017 (GMT -0600)
Kremmling

Weather History for K20V - October, 2013

Change the Weather History Date:

Sunday, October 20, 2013

  Actual Average Record
Temperature  
Mean Temperature 37 °F -  
Max Temperature 50 °F - 75 °F (2003)
Min Temperature 23 °F - 18 °F (2016)
Degree Days  
Heating Degree Days 28    
Month to date heating degree days  
Cooling Degree Days 0    
Month to date cooling degree days  
Moisture  
Dew Point 24 °F    
Average Humidity 66    
Maximum Humidity 93    
Minimum Humidity 37    
Precipitation  
Precipitation 0.00 in - 0.04 in (2007)
Sea Level Pressure  
Sea Level Pressure 30.11 in    
Wind  
Wind Speed 5 mph (NW)    
Max Wind Speed 22 mph    
Max Gust Speed 29 mph    
Visibility 10 miles    
Events Rain    
T = Trace of Precipitation, MM = Missing Value Source: NWS Daily Summary

Daily Weather History Graph

Daily Weather History Graph

Search for Another Location

Airport or City:

Trip Planner

Search our weather history database for the weather conditions in past years. The results will help you decide how hot, cold, wet, or windy it might be!

Date:

Astronomy

Oct. 20, 2013 Rise Set
Actual Time 7:21 AM MDT 6:18 PM MDT
Civil Twilight 6:54 AM MDT 6:45 PM MDT
Nautical Twilight 6:22 AM MDT 7:17 PM MDT
Astronomical Twilight 5:51 AM MDT 7:48 PM MDT
Moon 7:28 PM MDT (10/20) 9:02 AM MDT (10/20)
Length of Visible Light 11h 51m
Length of Day
10h 56m
Full, 97% of the Moon is Illuminated
Oct 20
Full
Oct 26
Last Quarter
Nov 3
New
Nov 9
First Quarter
Nov 17
Full

Hourly Weather History & Observations

Time (MDT) Temp. Windchill Dew Point Humidity Pressure Visibility Wind Dir Wind Speed Gust Speed Precip Events Conditions
12:16 AM 37.4 °F 32.1 °F 19.4 °F 48% 30.12 in 10.0 mi WNW 6.9 mph - N/A   Clear
12:36 AM 35.6 °F 30.7 °F 19.4 °F 52% 30.12 in 10.0 mi WNW 5.8 mph - N/A   Clear
12:56 AM 37.4 °F 32.8 °F 17.6 °F 45% 30.12 in 10.0 mi West 5.8 mph - N/A   Clear
1:16 AM 35.6 °F 32.8 °F 19.4 °F 52% 30.11 in 10.0 mi West 3.5 mph - N/A   Clear
1:36 AM 37.4 °F 33.8 °F 17.6 °F 45% 30.11 in 10.0 mi West 4.6 mph - N/A   Clear
1:56 AM 35.6 °F 31.7 °F 17.6 °F 48% 30.10 in 10.0 mi SW 4.6 mph - N/A   Clear
2:15 AM 35.6 °F - 17.6 °F 48% 30.11 in 10.0 mi Calm Calm - N/A   Clear
2:36 AM 35.6 °F 32.8 °F 17.6 °F 48% 30.11 in 10.0 mi WNW 3.5 mph - N/A   Clear
2:56 AM 32.0 °F - 19.4 °F 60% 30.10 in 10.0 mi Calm Calm - N/A   Clear
3:16 AM 30.2 °F - 19.4 °F 64% 30.09 in 10.0 mi Calm Calm - N/A   Clear
3:36 AM 33.8 °F 28.6 °F 19.4 °F 56% 30.09 in 10.0 mi West 5.8 mph - N/A   Clear
3:56 AM 35.6 °F 29.2 °F 19.4 °F 52% 30.08 in 10.0 mi West 8.1 mph - N/A   Clear
4:16 AM 30.2 °F 26.7 °F 19.4 °F 64% 30.08 in 10.0 mi SE 3.5 mph - N/A   Clear
4:36 AM 30.2 °F - 21.2 °F 69% 30.08 in 10.0 mi Calm Calm - N/A   Clear
4:56 AM 28.4 °F 24.6 °F 19.4 °F 69% 30.08 in 10.0 mi SE 3.5 mph - N/A   Clear
5:16 AM 28.4 °F - 21.2 °F 74% 30.08 in 10.0 mi Calm Calm - N/A   Clear
5:36 AM 28.4 °F 21.2 °F 21.2 °F 74% 30.08 in 10.0 mi ESE 6.9 mph - N/A   Clear
5:55 AM 28.4 °F 24.6 °F 19.4 °F 69% 30.08 in 10.0 mi ENE 3.5 mph - N/A   Clear
6:16 AM 28.4 °F - 21.2 °F 74% 30.08 in 10.0 mi Calm Calm - N/A   Clear
6:36 AM 30.2 °F 26.7 °F 21.2 °F 69% 30.08 in 10.0 mi ENE 3.5 mph - N/A   Clear
6:56 AM 28.4 °F - 21.2 °F 74% 30.09 in 10.0 mi Calm Calm - N/A   Clear
7:16 AM 28.4 °F 23.3 °F 21.2 °F 74% 30.09 in 10.0 mi East 4.6 mph - N/A   Clear
7:36 AM 28.4 °F - 21.2 °F 74% 30.09 in 10.0 mi Calm Calm - N/A   Scattered Clouds
7:56 AM 28.4 °F - 23.0 °F 80% 30.09 in 10.0 mi Calm Calm - N/A   Overcast
8:16 AM 30.2 °F 26.7 °F 23.0 °F 75% 30.10 in 10.0 mi SE 3.5 mph - N/A   Overcast
8:36 AM 32.0 °F 27.5 °F 23.0 °F 69% 30.10 in 10.0 mi East 4.6 mph - N/A   Overcast
8:56 AM 33.8 °F 30.8 °F 23.0 °F 65% 30.11 in 10.0 mi North 3.5 mph - N/A   Overcast
9:16 AM 32.0 °F 28.7 °F 23.0 °F 69% 30.11 in 10.0 mi NNW 3.5 mph - N/A   Overcast
9:36 AM 33.8 °F - 23.0 °F 65% 30.12 in 10.0 mi Calm Calm - N/A   Overcast
9:56 AM 35.6 °F 32.8 °F 24.8 °F 65% 30.11 in 10.0 mi West 3.5 mph - N/A   Overcast
10:16 AM 37.4 °F 30.8 °F 26.6 °F 65% 30.10 in 10.0 mi West 9.2 mph - N/A   Overcast
10:35 AM 41.0 °F 37.1 °F 23.0 °F 49% 30.10 in 10.0 mi NW 5.8 mph - N/A   Overcast
10:56 AM 41.0 °F 36.4 °F 23.0 °F 49% 30.10 in 10.0 mi NW 6.9 mph - N/A   Overcast
11:16 AM 41.0 °F 36.4 °F 24.8 °F 53% 30.09 in 10.0 mi NNW 6.9 mph - N/A   Overcast
11:36 AM 42.8 °F 37.5 °F 24.8 °F 49% 30.09 in 10.0 mi NNW 9.2 mph - N/A   Overcast
11:56 AM 42.8 °F 38.0 °F 26.6 °F 53% 30.09 in 10.0 mi NNW 8.1 mph - N/A   Overcast
12:16 PM 42.8 °F 38.6 °F 26.6 °F 53% 30.09 in 10.0 mi NNW 6.9 mph - N/A   Overcast
12:36 PM 42.8 °F 37.0 °F 26.6 °F 53% 30.09 in 10.0 mi WSW 10.4 mph 16.1 mph N/A   Overcast
12:55 PM 42.8 °F 38.0 °F 26.6 °F 53% 30.08 in 10.0 mi West 8.1 mph - N/A   Overcast
1:16 PM 42.8 °F 40.1 °F 26.6 °F 53% 30.07 in 10.0 mi WNW 4.6 mph - N/A   Overcast
1:36 PM 42.8 °F 37.5 °F 28.4 °F 57% 30.07 in 10.0 mi WSW 9.2 mph - N/A   Overcast
1:56 PM 44.6 °F 37.4 °F 26.6 °F 49% 30.06 in 10.0 mi West 16.1 mph 23.0 mph N/A   Overcast
2:16 PM 46.4 °F 41.5 °F 28.4 °F 50% 30.06 in 10.0 mi West 10.4 mph 19.6 mph N/A   Overcast
2:36 PM 44.6 °F 38.4 °F 24.8 °F 46% 30.06 in 10.0 mi West 12.7 mph 18.4 mph N/A   Overcast
2:55 PM 50.0 °F - 24.8 °F 37% 30.06 in 10.0 mi WNW 5.8 mph - N/A   Mostly Cloudy
3:16 PM 42.8 °F 37.5 °F 28.4 °F 57% 30.06 in 10.0 mi WNW 9.2 mph 21.9 mph N/A Rain Light Rain
3:36 PM 50.0 °F - 24.8 °F 37% 30.06 in 10.0 mi NW 12.7 mph 18.4 mph N/A   Overcast
3:56 PM 50.0 °F - 24.8 °F 37% 30.05 in 10.0 mi NNW 11.5 mph 17.3 mph N/A   Overcast
4:16 PM 42.8 °F 33.8 °F 26.6 °F 53% 30.06 in 10.0 mi North 21.9 mph 28.8 mph N/A   Overcast
4:36 PM 37.4 °F 32.8 °F 32.0 °F 81% 30.08 in 10.0 mi NNW 5.8 mph - N/A Rain Light Rain
4:56 PM 41.0 °F - 30.2 °F 65% 30.08 in 10.0 mi Calm Calm - N/A   Scattered Clouds
5:16 PM 37.4 °F 30.8 °F 30.2 °F 75% 30.09 in 10.0 mi North 9.2 mph - N/A   Scattered Clouds
5:36 PM 41.0 °F 34.3 °F 28.4 °F 61% 30.10 in 10.0 mi North 11.5 mph 17.3 mph N/A   Mostly Cloudy
5:56 PM 37.4 °F 29.8 °F 30.2 °F 75% 30.11 in 10.0 mi North 11.5 mph 19.6 mph N/A   Scattered Clouds
6:16 PM 35.6 °F 28.6 °F 30.2 °F 81% 30.12 in 10.0 mi North 9.2 mph - N/A   Clear
6:36 PM 35.6 °F - 28.4 °F 75% 30.13 in 10.0 mi Calm Calm - N/A   Clear
6:56 PM 33.8 °F - 30.2 °F 87% 30.13 in 10.0 mi Calm Calm - N/A   Scattered Clouds
7:16 PM 33.8 °F - 30.2 °F 87% 30.14 in 10.0 mi Calm Calm - N/A   Clear
7:36 PM 33.8 °F - 30.2 °F 87% 30.14 in 10.0 mi Calm Calm - N/A   Clear
7:56 PM 32.0 °F - 28.4 °F 87% 30.14 in 10.0 mi Calm Calm - N/A   Mostly Cloudy
8:15 PM 32.0 °F - 28.4 °F 87% 30.15 in 10.0 mi Calm Calm - N/A   Overcast
8:35 PM 32.0 °F - 28.4 °F 87% 30.15 in 10.0 mi Calm Calm - N/A   Overcast
8:56 PM 30.2 °F - 26.6 °F 86% 30.16 in 10.0 mi Calm Calm - N/A   Scattered Clouds
9:16 PM 30.2 °F - 26.6 °F 86% 30.16 in 10.0 mi Calm Calm - N/A   Clear
9:36 PM 28.4 °F - 24.8 °F 86% 30.17 in 10.0 mi Calm Calm - N/A   Scattered Clouds
9:55 PM 28.4 °F - 24.8 °F 86% 30.17 in 10.0 mi Calm Calm - N/A   Scattered Clouds
10:16 PM 30.2 °F - 26.6 °F 86% 30.17 in 10.0 mi Calm Calm - N/A   Clear
10:36 PM 28.4 °F - 24.8 °F 86% 30.17 in 10.0 mi Calm Calm - N/A   Clear
10:56 PM 28.4 °F - 26.6 °F 93% 30.17 in 10.0 mi Calm Calm - N/A   Clear
11:16 PM 26.6 °F - 23.0 °F 86% 30.18 in 10.0 mi Calm Calm - N/A   Clear
11:35 PM 24.8 °F - 23.0 °F 93% 30.19 in 10.0 mi Calm Calm - N/A   Scattered Clouds
11:56 PM 23.0 °F 18.4 °F 21.2 °F 93% 30.18 in 10.0 mi ESE 3.5 mph - N/A   Mostly Cloudy